QPF
0.00 0.00 0.00 0.00 0.00 0.00 0.00 0.00 0.00 0.00 0.00 0.00 0.01 0.00 0.00 0.00 0.00 0.00 0.00 0.00 0.00 0.00 0.00 0.00 0.00 0.00 0.00 0.00 0.00 0.00 0.00 0.00 0.00 0.00 0.00 0.00 0.00 0.00 0.00 0.00 0.00 0.00 0.00 0.00 0.00 0.00 0.00 0.00 0.00
0.00 0.00 0.00 0.00 0.00 0.00 0.00 0.00 0.00 0.00 0.00 0.02 0.01 0.01 0.00 0.00 0.00 0.00 0.00 0.00 0.00 0.00 0.00 0.00 0.00 0.00 0.00 0.00 0.00 0.00 0.00 0.00 0.00 0.00 0.00 0.00 0.00 0.00 0.00 0.00 0.00 0.00 0.00 0.00 0.00 0.00 0.00 0.00 0.00
0.00 0.00 0.00 0.00 0.00 0.00 0.00 0.00 0.00 0.00 0.00 0.00 0.00 0.00 0.00 0.00 0.00 0.00 0.00 0.00 0.00 0.00 0.00 0.00 0.00 0.00 0.00 0.00 0.00 0.00 0.00 0.00 0.00 0.00 0.00 0.00 0.00 0.00 0.00 0.00 0.00 0.00 0.00 0.00 0.00 0.00 0.00 0.00 0.00
0.00 0.00 0.00 0.00 0.00 0.00 0.00 0.00 0.00 0.00 0.00 0.00 0.00 0.00 0.00 0.00 0.00 0.00 0.00 0.00 0.00 0.00 0.00 0.00 0.00 0.00 0.00 0.00 0.00 0.00 0.00 0.00 0.00 0.00 0.00 0.00 0.00 0.00 0.00 0.00 0.00 0.00 0.00 0.00 0.00 0.00 0.00 0.00 0.00
0.00 0.00 0.00 0.00 0.00 0.00 0.00 0.00 0.00 0.00 0.00 0.00 0.00 0.00 0.00 0.00 0.00 0.00 0.00 0.00 0.00 0.00 0.00 0.00 0.00 0.00 0.00 0.00 0.00 0.00 0.00 0.00 0.00 0.00 0.00 0.00 0.00 0.00 0.00 0.00 0.00 0.00 0.00 0.00 0.00 0.00 0.00 0.00 0.00
0.00 0.00 0.00 0.00 0.00 0.00 0.00 0.00 0.00 0.00 0.00 0.00 0.00 0.00 0.00 0.00 0.00 0.00 0.00 0.00 0.00 0.00 0.00 0.00 0.00 0.00 0.00 0.00 0.00 0.00 0.00 0.00 0.00 0.00 0.00 0.00 0.00 0.00 0.00 0.00 0.00 0.00 0.00 0.00 0.00 0.00 0.00 0.00 0.00
0.00 0.00 0.00 0.00 0.00 0.00 0.00 0.00 0.00 0.00 0.04 0.01 0.00 0.00 0.00 0.00 0.00 0.00 0.00 0.00 0.00 0.00 0.00 0.00 0.00 0.00 0.00 0.00 0.00 0.00 0.00 0.00 0.00 0.00 0.00 0.00 0.00 0.00 0.00 0.00 0.00 0.00 0.00 0.00 0.00 0.00 0.00 0.00 0.00
0.00 0.00 0.00 0.00 0.00 0.00 0.00 0.01 0.01 0.00 0.05 0.03 0.00 0.00 0.00 0.00 0.00 0.00 0.00 0.00 0.00 0.00 0.00 0.00 0.00 0.00 0.00 0.00 0.00 0.00 0.00 0.00 0.00 0.00 0.00 0.00 0.00 0.00 0.00 0.00 0.00 0.00 0.00 0.00 0.00 0.00 0.00 0.00 0.00
0.00 0.00 0.00 0.00 0.00 0.00 0.00 0.01 0.04 0.02 0.02 0.03 0.02 0.00 0.00 0.00 0.00 0.00 0.00 0.00 0.00 0.00 0.00 0.00 0.00 0.00 0.00 0.00 0.00 0.00 0.00 0.00 0.00 0.00 0.00 0.00 0.00 0.00 0.00 0.00 0.00 0.00 0.00 0.00 0.00 0.00 0.00 0.00 0.00
0.00 0.00 0.00 0.00 0.00 0.00 0.00 0.00 0.01 0.01 0.04 0.06 0.01 0.00 0.00 0.00 0.00 0.00 0.00 0.00 0.00 0.00 0.00 0.00 0.00 0.00 0.00 0.00 0.00 0.00 0.00 0.00 0.00 0.00 0.00 0.00 0.00 0.00 0.00 0.00 0.00 0.00 0.00 0.00 0.00 0.00 0.00 0.00 0.00
0.00 0.00 0.00 0.00 0.00 0.00 0.00 0.00 0.00 0.00 0.00 0.00 0.00 0.00 0.00 0.00 0.00 0.00 0.00 0.00 0.00 0.00 0.00 0.00 0.00 0.00 0.00 0.00 0.00 0.00 0.00 0.00 0.00 0.00 0.00 0.00 0.00 0.00 0.00 0.00 0.00 0.00 0.00 0.00 0.00 0.00 0.00 0.00 0.00
0.00 0.00 0.00 0.00 0.00 0.00 0.00 0.00 0.01 0.00 0.00 0.00 0.00 0.00 0.00 0.00 0.00 0.00 0.00 0.00 0.00 0.00 0.00 0.00 0.00 0.00 0.00 0.00 0.00 0.00 0.00 0.00 0.00 0.00 0.00 0.00 0.00 0.00 0.00 0.00 0.00 0.00 0.00 0.00 0.00 0.00 0.00 0.00 0.00
0.00 0.00 0.00 0.00 0.00 0.00 0.00 0.00 0.00 0.00 0.00 0.00 0.00 0.00 0.00 0.00 0.00 0.00 0.00 0.00 0.00 0.00 0.00 0.00 0.01 0.00 0.00 0.00 0.00 0.00 0.00 0.00 0.00 0.00 0.00 0.00 0.00 0.00 0.00 0.00 0.00 0.00 0.00 0.00 0.00 0.00 0.00 0.00 0.00
0.00 0.00 0.00 0.00 0.00 0.00 0.00 0.00 0.00 0.00 0.00 0.00 0.00 0.01 0.00 0.00 0.00 0.00 0.00 0.00 0.00 0.00 0.00 0.00 0.00 0.00 0.00 0.00 0.00 0.00 0.01 0.00 0.00 0.00 0.00 0.00 0.00 0.00 0.00 0.00 0.00 0.00 0.00 0.00 0.00 0.00 0.00 0.00 0.00
0.00 0.00 0.00 0.00 0.00 0.00 0.00 0.00 0.00 0.00 0.00 0.00 0.00 0.00 0.00 0.00 0.00 0.00 0.00 0.00 0.00 0.00 0.00 0.00 0.00 0.00 0.01 0.01 0.02 0.03 0.01 0.00 0.00 0.00 0.00 0.00 0.00 0.00 0.00 0.00 0.00 0.00 0.00 0.00 0.00 0.00 0.00 0.00 0.00
0.00 0.00 0.00 0.00 0.00 0.00 0.00 0.00 0.00 0.00 0.00 0.00 0.00 0.00 0.00 0.00 0.00 0.00 0.00 0.00 0.00 0.00 0.00 0.00 0.00 0.00 0.03 0.04 0.02 0.00 0.00 0.00 0.00 0.00 0.00 0.00 0.00 0.00 0.00 0.00 0.00 0.00 0.00 0.00 0.00 0.00 0.00 0.00 0.00
0.00 0.00 0.00 0.00 0.00 0.00 0.00 0.00 0.00 0.00 0.00 0.00 0.00 0.00 0.00 0.01 0.01 0.01 0.00 0.00 0.00 0.00 0.00 0.00 0.00 0.00 0.00 0.00 0.00 0.00 0.00 0.00 0.00 0.00 0.00 0.00 0.00 0.00 0.00 0.00 0.00 0.00 0.00 0.00 0.00 0.00 0.00 0.00 0.00
0.00 0.00 0.00 0.00 0.00 0.00 0.00 0.00 0.00 0.00 0.00 0.00 0.00 0.00 0.03 0.01 0.01 0.00 0.00 0.00 0.00 0.00 0.00 0.00 0.00 0.00 0.00 0.00 0.00 0.00 0.00 0.00 0.00 0.00 0.00 0.00 0.00 0.00 0.00 0.00 0.00 0.00 0.00 0.00 0.00 0.00 0.00 0.00 0.00
0.00 0.00 0.00 0.00 0.00 0.00 0.00 0.00 0.00 0.00 0.00 0.00 0.00 0.00 0.01 0.01 0.00 0.00 0.04 0.01 0.00 0.00 0.00 0.00 0.00 0.00 0.00 0.00 0.00 0.00 0.00 0.00 0.00 0.00 0.00 0.00 0.00 0.00 0.00 0.00 0.00 0.00 0.00 0.00 0.00 0.00 0.00 0.00 0.00
0.00 0.00 0.00 0.00 0.00 0.00 0.00 0.00 0.00 0.00 0.00 0.00 0.00 0.00 0.00 0.00 0.00 0.02 0.10 0.05 0.00 0.00 0.00 0.00 0.01 0.01 0.00 0.00 0.00 0.00 0.00 0.00 0.00 0.00 0.00 0.00 0.00 0.00 0.00 0.00 0.00 0.00 0.00 0.00 0.00 0.00 0.00 0.00 0.00
0.00 0.00 0.00 0.00 0.00 0.00 0.00 0.00 0.00 0.00 0.00 0.00 0.00 0.00 0.00 0.00 0.00 0.00 0.01 0.01 0.00 0.00 0.00 0.05 0.15 0.06 0.00 0.00 0.00 0.00 0.00 0.00 0.00 0.00 0.00 0.00 0.00 0.00 0.00 0.00 0.00 0.00 0.00 0.00 0.00 0.00 0.00 0.00 0.00
0.00 0.00 0.00 0.00 0.00 0.00 0.00 0.00 0.00 0.00 0.00 0.00 0.00 0.00 0.00 0.00 0.00 0.00 0.00 0.00 0.00 0.11 0.27 0.32 0.26 0.07 0.00 0.00 0.00 0.00 0.00 0.00 0.00 0.00 0.00 0.00 0.00 0.00 0.00 0.00 0.00 0.00 0.00 0.00 0.00 0.00 0.00 0.00 0.00
0.00 0.00 0.00 0.00 0.00 0.00 0.00 0.00 0.00 0.00 0.00 0.00 0.00 0.00 0.00 0.00 0.00 0.00 0.00 0.07 0.36 0.56 0.43 0.29 0.17 0.06 0.02 0.00 0.00 0.00 0.00 0.00 0.00 0.00 0.00 0.00 0.00 0.00 0.00 0.00 0.00 0.00 0.00 0.00 0.00 0.00 0.00 0.00 0.00
0.00 0.00 0.00 0.00 0.00 0.00 0.00 0.00 0.00 0.00 0.00 0.00 0.00 0.00 0.00 0.00 0.00 0.00 0.04 0.10 0.11 0.14 0.20 0.17 0.09 0.03 0.01 0.00 0.00 0.00 0.00 0.00 0.00 0.00 0.00 0.00 0.00 0.00 0.00 0.00 0.00 0.00 0.00 0.00 0.00 0.00 0.00 0.00 0.00
0.00 0.00 0.00 0.00 0.00 0.00 0.00 0.00 0.01 0.00 0.00 0.00 0.00 0.00 0.00 0.00 0.01 0.05 0.07 0.08 0.12 0.10 0.05 0.08 0.09 0.04 0.01 0.00 0.00 0.00 0.00 0.00 0.00 0.00 0.00 0.00 0.00 0.00 0.00 0.00 0.00 0.00 0.00 0.00 0.00 0.00 0.00 0.00 0.00
0.00 0.00 0.00 0.00 0.00 0.00 0.00 0.00 0.01 0.00 0.00 0.00 0.00 0.00 0.00 0.03 0.13 0.26 0.38 0.23 0.10 0.05 0.01 0.02 0.08 0.09 0.05 0.01 0.01 0.01 0.00 0.00 0.00 0.00 0.00 0.00 0.00 0.00 0.00 0.00 0.00 0.00 0.00 0.00 0.00 0.00 0.00 0.00 0.00
0.00 0.00 0.00 0.00 0.00 0.00 0.00 0.00 0.00 0.00 0.00 0.00 0.00 0.00 0.00 0.01 0.02 0.01 0.02 0.01 0.00 0.00 0.00 0.00 0.03 0.08 0.07 0.01 0.03 0.03 0.00 0.00 0.00 0.00 0.00 0.00 0.00 0.00 0.00 0.00 0.00 0.00 0.00 0.00 0.00 0.00 0.00 0.00 0.00
0.00 0.00 0.00 0.00 0.00 0.00 0.00 0.00 0.00 0.00 0.00 0.00 0.00 0.00 0.00 0.00 0.00 0.00 0.00 0.00 0.00 0.00 0.00 0.00 0.02 0.06 0.04 0.02 0.06 0.02 0.00 0.00 0.00 0.00 0.00 0.00 0.00 0.00 0.00 0.00 0.00 0.00 0.00 0.00 0.00 0.00 0.00 0.00 0.00
0.00 0.00 0.00 0.00 0.00 0.00 0.00 0.00 0.00 0.00 0.00 0.00 0.00 0.00 0.00 0.00 0.00 0.00 0.00 0.00 0.00 0.00 0.00 0.00 0.03 0.08 0.04 0.02 0.01 0.00 0.00 0.00 0.00 0.00 0.00 0.00 0.00 0.00 0.00 0.00 0.00 0.00 0.00 0.00 0.00 0.00 0.00 0.00 0.00
0.00 0.00 0.00 0.00 0.00 0.00 0.00 0.00 0.00 0.00 0.00 0.00 0.00 0.00 0.00 0.00 0.00 0.00 0.00 0.00 0.00 0.00 0.00 0.01 0.06 0.03 0.03 0.02 0.02 0.01 0.00 0.00 0.00 0.00 0.00 0.00 0.00 0.00 0.00 0.00 0.00 0.00 0.00 0.00 0.00 0.00 0.00 0.00 0.00
MSLP
1011.21 1011.27 1011.41 1011.79 1013.29 1014.14 1013.76 1012.88 1011.78 1010.94 1010.53 1010.09 1009.99 1010.37 1011.02 1011.70 1012.35 1013.72 1013.40 1013.83 1014.60 1015.21 1015.50 1015.60 1015.57 1015.65 1015.67 1015.95 1015.93 1015.97 1015.93 1016.05 1016.13 1016.22 1016.26 1016.13 1016.09 1016.00 1015.99 1015.90 1015.78 1015.68 1015.61 1015.64 1015.66 1015.64 1015.55 1015.41 1015.23
1011.20 1011.56 1011.74 1012.38 1013.79 1014.23 1013.12 1012.04 1011.15 1009.70 1009.70 1009.79 1010.19 1010.38 1010.90 1011.80 1012.15 1013.22 1013.89 1014.59 1014.77 1015.30 1015.52 1015.83 1015.77 1015.81 1015.84 1016.03 1016.11 1016.06 1016.11 1016.13 1016.18 1016.27 1016.27 1016.20 1016.16 1016.20 1016.23 1016.15 1016.04 1015.93 1015.80 1015.82 1015.85 1015.74 1015.63 1015.55 1015.40
1011.12 1011.15 1012.27 1012.92 1013.50 1013.43 1012.30 1010.88 1009.80 1008.88 1009.03 1009.12 1009.87 1010.04 1010.75 1011.98 1012.65 1013.32 1013.80 1014.56 1015.06 1015.45 1015.65 1015.76 1015.77 1015.85 1015.95 1016.17 1016.17 1016.24 1016.19 1016.16 1016.19 1016.34 1016.35 1016.34 1016.36 1016.36 1016.39 1016.41 1016.18 1016.10 1015.96 1015.97 1015.94 1015.86 1015.73 1015.55 1015.39
1011.11 1011.74 1012.33 1012.63 1012.78 1011.89 1010.87 1009.29 1008.93 1008.61 1008.53 1008.92 1009.54 1010.43 1010.97 1011.30 1012.11 1012.97 1014.11 1014.55 1015.39 1015.62 1015.70 1015.76 1015.88 1016.05 1016.11 1016.17 1016.17 1016.27 1016.20 1016.30 1016.34 1016.35 1016.46 1016.41 1016.52 1016.58 1016.59 1016.59 1016.47 1016.32 1016.10 1016.13 1016.02 1015.95 1015.83 1015.61 1015.48
1010.86 1011.92 1012.40 1012.50 1011.97 1010.78 1009.63 1008.29 1008.40 1008.57 1008.53 1008.80 1009.17 1010.72 1011.20 1011.70 1012.09 1013.26 1014.23 1014.84 1015.11 1015.76 1015.79 1015.80 1015.91 1016.02 1016.04 1016.14 1016.21 1016.34 1016.31 1016.37 1016.57 1016.49 1016.52 1016.66 1016.66 1016.61 1016.62 1016.55 1016.50 1016.36 1016.15 1016.13 1015.93 1015.87 1015.82 1015.69 1015.55
1011.21 1011.98 1012.71 1012.36 1011.26 1009.81 1009.00 1008.29 1008.53 1008.64 1009.09 1009.53 1009.95 1010.76 1011.81 1012.30 1012.75 1013.66 1014.18 1014.89 1014.97 1015.42 1015.79 1016.06 1016.17 1016.10 1016.07 1016.22 1016.25 1016.36 1016.54 1016.59 1016.67 1016.72 1016.67 1016.76 1016.77 1016.67 1016.58 1016.60 1016.42 1016.28 1016.24 1016.18 1016.08 1016.01 1015.93 1015.77 1015.53
1011.17 1012.09 1012.24 1011.72 1010.64 1009.35 1008.48 1007.99 1008.83 1009.24 1009.63 1010.52 1009.74 1010.92 1012.00 1012.56 1012.98 1014.06 1014.64 1014.94 1015.24 1015.67 1016.01 1016.39 1016.58 1016.59 1016.64 1016.58 1016.52 1016.54 1016.74 1016.76 1016.78 1016.74 1016.80 1016.90 1016.89 1016.79 1016.72 1016.64 1016.42 1016.36 1016.39 1016.25 1016.02 1015.88 1015.95 1015.71 1015.47
1010.50 1011.56 1011.44 1011.07 1009.96 1008.99 1007.31 1007.89 1008.42 1009.01 1011.34 1011.13 1010.88 1010.67 1011.47 1012.02 1013.03 1013.90 1014.93 1015.33 1015.81 1016.15 1016.28 1016.49 1016.65 1016.79 1016.88 1016.94 1016.87 1016.82 1016.86 1016.83 1016.97 1016.83 1016.83 1016.91 1016.99 1016.97 1016.78 1016.69 1016.54 1016.49 1016.40 1016.14 1015.93 1015.83 1015.82 1015.61 1015.45
1009.83 1011.05 1010.83 1010.61 1009.65 1008.62 1007.51 1008.02 1008.77 1008.97 1010.22 1010.76 1010.07 1009.93 1010.25 1011.44 1012.89 1014.04 1014.98 1015.84 1016.34 1016.64 1016.69 1016.60 1016.67 1016.77 1016.85 1016.99 1017.00 1016.93 1016.93 1016.97 1017.08 1017.12 1016.95 1017.08 1017.32 1017.31 1016.99 1016.74 1016.75 1016.60 1016.46 1016.37 1016.19 1016.07 1016.01 1015.88 1015.71
1009.70 1010.47 1010.19 1009.40 1008.53 1007.97 1007.86 1007.00 1008.33 1009.49 1010.37 1011.00 1009.80 1009.85 1010.25 1011.32 1012.51 1013.75 1014.41 1015.14 1016.09 1016.19 1016.55 1016.75 1016.67 1016.68 1016.86 1016.80 1017.08 1017.31 1017.16 1017.34 1017.36 1017.57 1017.49 1017.46 1017.41 1017.23 1017.29 1017.16 1017.05 1016.80 1016.67 1016.60 1016.47 1016.35 1016.35 1016.19 1016.11
1009.38 1009.51 1008.90 1008.24 1007.62 1007.33 1006.69 1007.13 1008.26 1009.29 1009.43 1008.55 1008.65 1009.43 1010.00 1011.01 1011.84 1012.66 1013.93 1014.41 1014.79 1015.42 1016.09 1016.41 1016.61 1016.81 1016.92 1016.88 1017.31 1017.52 1017.56 1017.56 1017.61 1017.87 1017.88 1017.61 1017.57 1017.63 1017.72 1017.60 1017.40 1017.19 1017.13 1017.15 1016.96 1016.89 1016.71 1016.65 1016.52
1009.19 1008.38 1007.97 1007.41 1006.59 1006.73 1006.47 1007.04 1008.39 1007.94 1008.99 1008.09 1007.83 1008.21 1008.98 1010.11 1011.39 1012.01 1013.17 1014.47 1015.20 1015.59 1015.98 1016.43 1016.63 1016.77 1016.96 1016.89 1017.19 1017.36 1017.73 1017.85 1017.96 1018.15 1018.13 1018.01 1018.04 1018.04 1018.06 1017.92 1017.78 1017.77 1017.66 1017.58 1017.44 1017.28 1017.05 1016.87 1016.71
1009.03 1008.05 1007.27 1006.65 1006.48 1006.10 1006.06 1006.04 1006.55 1007.06 1006.90 1008.78 1008.31 1008.67 1009.50 1010.41 1011.48 1012.12 1012.44 1013.31 1014.45 1015.19 1015.67 1016.24 1016.60 1016.84 1016.88 1016.91 1017.46 1017.85 1018.23 1018.19 1018.20 1018.41 1018.45 1018.33 1018.38 1018.37 1018.35 1018.32 1018.15 1018.07 1017.76 1017.92 1017.76 1017.50 1017.42 1017.15 1017.08
1007.86 1007.52 1006.92 1006.31 1005.86 1005.29 1005.58 1006.19 1006.61 1007.57 1007.80 1009.37 1009.31 1009.71 1010.10 1010.58 1010.97 1011.82 1012.16 1013.12 1014.06 1014.65 1015.34 1015.84 1016.36 1016.48 1016.87 1017.22 1017.59 1018.12 1018.41 1018.29 1018.30 1018.73 1018.83 1018.64 1018.71 1018.60 1018.59 1018.68 1018.50 1018.35 1018.13 1018.14 1017.95 1017.88 1017.75 1017.83 1017.59
1007.65 1007.62 1006.58 1005.82 1005.42 1005.19 1005.14 1005.93 1006.78 1007.60 1008.76 1009.02 1009.50 1009.85 1010.04 1010.46 1010.79 1011.10 1011.60 1012.29 1013.13 1014.01 1014.59 1015.58 1016.16 1016.42 1016.84 1017.21 1017.73 1018.13 1018.41 1018.26 1018.63 1018.84 1019.03 1018.82 1019.03 1018.82 1018.86 1018.95 1018.89 1018.57 1018.27 1018.04 1017.99 1018.13 1017.92 1017.87 1017.78
1008.14 1007.88 1007.59 1005.75 1005.34 1004.93 1005.38 1006.33 1007.14 1007.93 1008.59 1009.05 1009.44 1009.52 1009.52 1009.52 1010.21 1010.80 1010.82 1011.83 1012.74 1013.54 1014.12 1015.01 1015.65 1016.24 1016.74 1017.33 1017.70 1017.90 1018.35 1018.53 1018.82 1019.14 1019.28 1019.06 1019.21 1019.04 1019.14 1019.22 1019.22 1018.79 1018.37 1018.34 1018.44 1018.59 1018.62 1018.53 1018.33
1009.30 1008.88 1008.09 1006.69 1005.40 1005.49 1005.80 1006.42 1007.40 1008.01 1008.54 1009.08 1009.48 1009.41 1010.18 1010.79 1010.11 1010.59 1011.49 1011.78 1012.00 1012.79 1013.75 1014.51 1015.08 1015.74 1016.38 1016.90 1017.46 1017.91 1018.47 1018.89 1019.20 1019.56 1019.52 1019.59 1019.46 1019.38 1019.57 1019.59 1019.48 1018.93 1018.92 1018.90 1019.01 1018.84 1018.79 1018.84 1018.72
1009.42 1008.99 1008.14 1007.21 1005.62 1005.48 1005.36 1005.89 1007.48 1008.17 1008.29 1008.70 1009.59 1010.52 1010.24 1010.23 1010.33 1010.01 1010.56 1010.66 1012.02 1012.22 1013.16 1013.87 1014.64 1015.31 1015.85 1017.01 1017.79 1018.12 1018.59 1019.11 1019.50 1019.75 1019.92 1019.98 1019.97 1019.95 1020.06 1019.87 1019.57 1019.37 1019.57 1019.62 1019.43 1019.36 1019.21 1019.17 1019.09
1009.00 1008.64 1008.00 1006.58 1005.38 1005.49 1005.43 1005.54 1007.41 1008.48 1009.37 1009.73 1010.24 1010.59 1010.39 1009.95 1009.96 1009.77 1009.73 1010.91 1011.15 1011.99 1012.41 1012.98 1014.09 1014.88 1015.50 1017.02 1017.95 1018.40 1018.95 1019.29 1019.83 1019.93 1020.04 1020.09 1020.26 1020.36 1020.34 1020.29 1020.07 1020.07 1020.32 1020.31 1019.95 1019.78 1019.72 1019.51 1019.23
1008.17 1007.88 1006.97 1005.87 1005.18 1005.28 1005.27 1005.43 1005.65 1007.70 1008.18 1008.45 1009.33 1009.91 1009.87 1010.19 1010.01 1009.13 1009.38 1009.27 1011.16 1012.08 1012.43 1012.95 1013.83 1014.43 1014.96 1016.41 1017.35 1017.78 1018.71 1019.36 1019.60 1019.99 1020.11 1020.11 1020.26 1020.41 1020.36 1020.45 1020.45 1020.47 1020.65 1020.55 1020.48 1020.35 1020.45 1020.36 1019.85
1006.89 1006.99 1006.75 1006.52 1005.60 1005.60 1005.89 1006.38 1006.62 1006.37 1007.91 1008.28 1009.04 1007.88 1008.88 1008.75 1008.77 1008.50 1008.83 1009.04 1010.11 1011.47 1011.52 1011.62 1012.52 1014.16 1014.85 1016.02 1017.14 1018.04 1018.68 1019.50 1020.06 1020.26 1020.25 1020.28 1020.33 1020.29 1020.38 1020.48 1020.66 1020.84 1020.89 1021.03 1020.94 1020.83 1020.85 1021.02 1020.47
1006.40 1006.24 1006.52 1006.72 1006.90 1007.33 1007.11 1008.33 1008.47 1008.51 1007.84 1008.44 1008.70 1008.30 1008.12 1008.50 1008.36 1007.88 1008.60 1009.41 1011.11 1012.97 1013.70 1011.97 1012.72 1014.08 1014.79 1015.48 1016.32 1017.42 1018.28 1019.34 1019.96 1020.06 1020.17 1020.49 1020.42 1020.48 1020.46 1020.52 1020.77 1021.05 1021.18 1021.32 1021.33 1021.27 1021.32 1021.34 1021.44
1005.96 1006.06 1006.70 1007.16 1007.92 1008.14 1008.19 1009.71 1011.75 1009.73 1009.52 1008.86 1007.47 1006.88 1006.56 1006.75 1007.00 1007.73 1008.82 1009.64 1010.37 1011.14 1011.62 1011.12 1012.70 1015.62 1015.81 1016.04 1016.27 1017.09 1018.14 1018.82 1019.53 1020.02 1020.35 1020.79 1020.78 1020.51 1020.22 1020.58 1020.93 1021.25 1021.52 1021.62 1021.59 1021.74 1021.71 1021.75 1021.83
1005.71 1006.36 1007.36 1008.30 1009.31 1010.02 1010.03 1010.55 1012.23 1011.36 1011.58 1010.37 1008.89 1008.46 1008.55 1009.19 1010.49 1009.86 1009.91 1009.82 1010.57 1011.20 1011.50 1012.57 1013.52 1014.17 1014.80 1015.73 1016.85 1016.63 1017.40 1018.45 1019.38 1020.04 1020.40 1020.64 1020.77 1020.69 1020.35 1020.40 1020.82 1021.24 1021.52 1021.77 1021.93 1021.89 1021.96 1022.18 1022.12
1006.26 1008.12 1009.34 1010.42 1011.01 1011.55 1010.89 1011.28 1012.15 1011.70 1010.88 1010.48 1010.22 1009.91 1007.38 1008.88 1010.14 1010.87 1011.67 1012.76 1014.00 1012.86 1013.21 1013.69 1014.63 1014.96 1014.27 1015.04 1016.79 1017.28 1017.43 1017.61 1018.38 1019.21 1019.99 1020.40 1020.74 1020.75 1020.61 1020.69 1020.89 1021.27 1021.48 1021.87 1021.93 1022.08 1022.09 1022.25 1022.25
1007.29 1008.67 1010.48 1011.77 1012.31 1012.15 1011.01 1011.80 1011.57 1011.01 1010.87 1010.62 1010.25 1010.64 1009.98 1010.79 1011.49 1011.29 1011.34 1011.91 1012.02 1012.14 1013.80 1014.13 1014.29 1014.93 1015.65 1015.43 1016.10 1016.75 1017.09 1017.63 1018.34 1018.82 1019.45 1019.79 1020.19 1020.42 1020.44 1020.53 1020.67 1021.01 1021.54 1021.79 1021.98 1022.14 1022.16 1022.19 1022.24
1008.01 1009.24 1010.30 1011.66 1012.85 1012.77 1012.62 1012.36 1011.03 1010.60 1010.08 1009.90 1011.23 1011.34 1011.30 1011.29 1011.08 1011.28 1011.91 1011.93 1011.89 1013.08 1014.74 1014.71 1014.33 1014.94 1015.01 1015.54 1016.19 1016.40 1016.97 1017.73 1018.57 1018.91 1019.08 1019.47 1019.85 1020.02 1020.21 1020.38 1020.68 1020.66 1021.13 1021.67 1022.00 1022.17 1022.11 1022.15 1022.20
1008.79 1010.13 1011.16 1012.78 1013.81 1013.97 1013.50 1012.80 1011.79 1010.64 1010.46 1010.00 1011.17 1011.48 1011.15 1011.43 1011.50 1011.51 1011.72 1011.93 1011.41 1012.28 1013.76 1013.71 1013.94 1013.98 1014.07 1014.80 1015.59 1015.78 1016.44 1017.31 1017.97 1018.68 1018.86 1019.29 1019.58 1019.91 1020.41 1020.72 1020.71 1020.80 1021.06 1021.42 1021.91 1022.08 1021.94 1022.13 1022.23
1010.07 1010.94 1012.48 1013.54 1014.05 1014.35 1013.99 1013.08 1010.92 1010.43 1010.40 1010.32 1010.84 1011.11 1011.14 1011.17 1011.53 1011.84 1011.75 1012.24 1012.08 1012.41 1012.26 1012.90 1013.64 1013.75 1014.02 1014.73 1015.68 1015.96 1016.50 1017.26 1017.80 1018.20 1018.61 1018.95 1019.34 1019.73 1020.19 1020.56 1020.68 1020.87 1021.16 1021.41 1021.78 1021.86 1021.96 1022.18 1022.18
1010.39 1011.46 1012.54 1014.00 1014.47 1014.50 1013.94 1012.30 1010.42 1010.00 1010.48 1010.55 1010.53 1011.16 1011.40 1011.58 1011.94 1011.81 1012.03 1012.01 1011.39 1012.03 1012.28 1012.56 1013.52 1013.79 1013.89 1014.09 1014.93 1015.63 1016.84 1017.53 1017.69 1018.14 1018.67 1018.92 1019.38 1019.64 1019.71 1020.19 1020.53 1020.71 1021.05 1021.33 1021.57 1021.72 1021.82 1021.97 1022.05
Thickness
5808 5810 5809 5798 5759 5743 5739 5759 5774 5775 5783 5794 5794 5787 5780 5778 5764 5742 5778 5778 5771 5765 5760 5759 5759 5759 5759 5756 5756 5757 5758 5757 5756 5755 5754 5755 5754 5754 5752 5752 5752 5752 5751 5749 5747 5746 5745 5745 5745
5806 5805 5799 5779 5737 5731 5745 5767 5766 5787 5799 5800 5791 5786 5780 5766 5781 5773 5770 5770 5769 5762 5759 5756 5756 5755 5756 5754 5753 5755 5754 5754 5753 5751 5751 5751 5752 5750 5749 5748 5748 5747 5748 5746 5745 5745 5744 5743 5742
5805 5806 5776 5754 5735 5731 5745 5776 5784 5797 5804 5802 5789 5796 5785 5769 5776 5773 5777 5771 5764 5759 5757 5757 5756 5754 5754 5752 5753 5752 5752 5752 5751 5749 5749 5748 5748 5748 5746 5744 5745 5744 5745 5743 5743 5742 5742 5741 5740
5797 5787 5775 5749 5745 5765 5775 5789 5796 5797 5805 5803 5795 5773 5789 5795 5783 5781 5773 5767 5760 5757 5757 5755 5754 5753 5752 5752 5753 5750 5751 5750 5749 5748 5747 5746 5744 5743 5743 5741 5741 5741 5742 5739 5739 5738 5737 5737 5736
5793 5772 5749 5741 5752 5776 5782 5801 5801 5796 5800 5798 5797 5770 5776 5789 5788 5781 5772 5767 5763 5757 5755 5755 5754 5752 5752 5751 5751 5749 5749 5749 5745 5745 5745 5743 5741 5741 5739 5739 5739 5739 5738 5735 5736 5735 5733 5732 5732
5770 5765 5734 5730 5757 5787 5787 5795 5795 5792 5797 5789 5780 5774 5771 5790 5781 5776 5773 5765 5762 5760 5755 5753 5751 5752 5752 5751 5750 5749 5747 5745 5743 5742 5741 5740 5738 5737 5738 5736 5736 5736 5733 5732 5731 5729 5728 5727 5727
5764 5749 5738 5748 5755 5774 5783 5799 5784 5782 5784 5774 5790 5765 5770 5780 5781 5770 5767 5764 5760 5757 5754 5750 5747 5747 5746 5747 5748 5747 5744 5743 5741 5741 5738 5736 5735 5734 5734 5732 5734 5732 5729 5728 5727 5727 5723 5723 5723
5772 5759 5753 5758 5754 5757 5797 5794 5793 5789 5760 5780 5787 5766 5765 5782 5782 5770 5763 5760 5756 5753 5751 5748 5746 5744 5744 5743 5742 5742 5741 5740 5737 5737 5735 5733 5731 5728 5730 5727 5728 5725 5724 5724 5724 5722 5719 5719 5718
5788 5749 5738 5750 5760 5767 5793 5786 5785 5796 5775 5768 5791 5789 5793 5792 5782 5769 5760 5755 5749 5747 5746 5745 5745 5744 5743 5741 5740 5739 5737 5736 5735 5733 5731 5730 5727 5725 5725 5724 5722 5721 5720 5719 5716 5713 5712 5710 5709
5769 5744 5755 5773 5782 5777 5784 5794 5782 5774 5772 5760 5784 5794 5793 5789 5782 5769 5763 5754 5747 5748 5745 5743 5743 5744 5741 5738 5736 5733 5732 5731 5731 5728 5726 5725 5723 5723 5720 5718 5717 5716 5714 5711 5709 5707 5705 5703 5702
5774 5756 5777 5785 5790 5790 5791 5784 5785 5770 5764 5785 5788 5788 5791 5785 5784 5779 5768 5758 5752 5753 5746 5744 5742 5740 5738 5735 5732 5729 5726 5725 5724 5720 5719 5720 5719 5716 5714 5713 5711 5710 5708 5704 5701 5701 5699 5696 5693
5765 5779 5783 5791 5800 5793 5790 5795 5769 5783 5775 5798 5803 5803 5799 5786 5781 5781 5773 5758 5749 5746 5745 5742 5738 5738 5735 5733 5729 5726 5720 5716 5716 5713 5712 5713 5713 5710 5708 5707 5705 5702 5699 5697 5695 5694 5691 5689 5685
5765 5775 5786 5795 5793 5794 5801 5799 5795 5791 5802 5792 5799 5797 5792 5785 5775 5778 5780 5771 5758 5750 5746 5742 5737 5735 5734 5734 5728 5722 5713 5709 5708 5707 5704 5706 5706 5704 5702 5700 5698 5695 5695 5691 5689 5687 5683 5681 5677
5780 5781 5785 5791 5792 5797 5797 5790 5793 5786 5795 5782 5785 5782 5783 5782 5779 5774 5777 5767 5757 5753 5749 5744 5739 5736 5731 5728 5723 5713 5707 5704 5701 5699 5697 5699 5699 5698 5696 5693 5691 5690 5688 5684 5682 5679 5675 5671 5668
5783 5774 5784 5792 5799 5798 5803 5787 5781 5789 5786 5783 5781 5781 5782 5778 5775 5776 5778 5769 5761 5756 5751 5741 5736 5734 5729 5722 5716 5708 5702 5699 5692 5693 5695 5694 5692 5691 5690 5687 5684 5685 5683 5681 5677 5672 5669 5665 5661
5764 5763 5746 5786 5798 5804 5794 5760 5780 5786 5782 5779 5779 5783 5785 5787 5778 5782 5783 5773 5763 5753 5749 5741 5737 5731 5725 5717 5712 5708 5701 5695 5690 5688 5688 5688 5685 5686 5683 5681 5678 5680 5679 5675 5669 5663 5658 5654 5650
5734 5725 5740 5757 5791 5785 5783 5768 5776 5784 5781 5776 5774 5780 5777 5767 5780 5778 5775 5772 5767 5755 5745 5739 5736 5730 5725 5717 5710 5707 5700 5693 5688 5683 5682 5682 5680 5679 5677 5675 5673 5674 5670 5666 5661 5655 5650 5646 5641
5721 5729 5738 5740 5772 5778 5774 5773 5764 5774 5779 5776 5773 5765 5770 5773 5775 5782 5776 5783 5769 5759 5746 5741 5737 5731 5727 5715 5708 5704 5698 5690 5684 5680 5676 5675 5674 5671 5670 5668 5667 5666 5662 5656 5652 5646 5642 5637 5631
5739 5733 5734 5756 5779 5775 5765 5775 5753 5763 5764 5763 5761 5761 5763 5772 5779 5783 5780 5766 5770 5758 5747 5742 5734 5729 5726 5713 5704 5698 5690 5685 5679 5675 5672 5671 5669 5665 5665 5661 5659 5656 5650 5645 5644 5639 5634 5629 5623
5738 5738 5742 5760 5779 5777 5769 5781 5795 5766 5769 5769 5764 5764 5767 5765 5769 5781 5776 5777 5762 5751 5744 5736 5730 5729 5728 5715 5706 5698 5686 5681 5677 5672 5670 5667 5664 5661 5661 5657 5652 5648 5645 5640 5635 5630 5623 5616 5611
5747 5744 5743 5743 5765 5772 5767 5751 5762 5787 5768 5770 5767 5781 5772 5774 5774 5778 5776 5776 5765 5751 5748 5738 5734 5726 5725 5714 5705 5693 5685 5677 5672 5670 5666 5663 5660 5659 5656 5652 5648 5642 5637 5631 5626 5620 5613 5604 5601
5732 5758 5752 5750 5739 5719 5755 5706 5738 5750 5760 5757 5756 5765 5770 5769 5776 5781 5778 5770 5753 5731 5717 5722 5728 5718 5720 5715 5709 5699 5689 5678 5671 5667 5664 5658 5655 5652 5650 5645 5641 5636 5630 5624 5617 5610 5602 5595 5587
5740 5762 5751 5750 5731 5734 5737 5701 5691 5732 5729 5739 5760 5768 5777 5781 5784 5778 5772 5763 5751 5743 5698 5718 5701 5701 5703 5704 5706 5698 5687 5680 5671 5663 5657 5651 5649 5648 5647 5642 5635 5628 5621 5615 5609 5601 5594 5585 5577
5767 5750 5735 5726 5714 5692 5719 5704 5684 5703 5707 5724 5742 5748 5754 5754 5747 5759 5759 5756 5744 5738 5731 5719 5718 5713 5708 5702 5694 5698 5690 5679 5669 5659 5654 5649 5646 5644 5642 5639 5633 5624 5616 5608 5600 5594 5587 5576 5569
5745 5710 5677 5681 5673 5681 5714 5695 5690 5706 5720 5724 5728 5730 5764 5757 5746 5741 5734 5719 5703 5718 5719 5715 5706 5702 5707 5701 5686 5684 5682 5680 5673 5663 5654 5648 5641 5639 5637 5631 5626 5618 5610 5601 5595 5587 5580 5570 5563
5735 5716 5674 5669 5662 5675 5712 5685 5686 5719 5723 5723 5728 5725 5736 5733 5730 5733 5732 5716 5701 5707 5710 5713 5703 5697 5689 5692 5687 5684 5678 5675 5668 5662 5654 5648 5641 5636 5633 5629 5624 5616 5605 5597 5588 5580 5572 5565 5557
5728 5701 5719 5692 5687 5677 5686 5693 5711 5718 5722 5726 5712 5714 5718 5722 5729 5730 5724 5725 5721 5711 5699 5699 5698 5692 5693 5687 5682 5680 5673 5667 5659 5655 5652 5646 5640 5635 5630 5625 5619 5614 5604 5592 5582 5574 5567 5560 5552
5726 5721 5691 5672 5662 5663 5672 5679 5679 5703 5708 5715 5706 5712 5719 5721 5723 5726 5725 5719 5724 5716 5702 5702 5696 5695 5697 5691 5680 5677 5672 5663 5659 5651 5649 5642 5638 5632 5624 5617 5612 5606 5597 5589 5578 5569 5563 5554 5546
5699 5692 5677 5675 5668 5654 5649 5662 5698 5704 5711 5709 5709 5713 5719 5722 5719 5717 5715 5712 5715 5711 5714 5704 5694 5691 5690 5684 5674 5671 5666 5658 5655 5651 5646 5640 5635 5628 5621 5613 5607 5600 5592 5584 5574 5566 5557 5548 5540
5716 5695 5680 5658 5667 5658 5651 5657 5715 5709 5705 5707 5711 5710 5711 5714 5710 5710 5708 5709 5718 5710 5705 5699 5688 5686 5687 5684 5674 5668 5658 5650 5649 5646 5638 5634 5628 5623 5620 5610 5603 5597 5587 5578 5569 5562 5553 5544 5536